Back to catalog

USA 357

AliveMilitaryVLEO
NORAD 59817·PAYLOAD·🇺🇸 United States

Launched May 22, 2024 from Vandenberg Space Force Base

Loading…

Next Passes (next 24 hours)

TLE

StaleSource: Mike McCants

Epoch: Aug 15, 2026, 22:37 UTC

1 59817U 24096D   26227.94287861 0.00000000  00000-0  00000-0 0    08
2 59817  70.0211 161.8170 0004000 332.4499  27.5500 14.96713793    04

Track USA 357 in real time with AllMySat

Download on the App Store